[[{"header":{"parameterUnit":"m.s-1","parameterCategory":2,"la1":30.2991,"la2":30.254,"lo1":-89.0895,"lo2":-89.0444,"dy":0.0017,"dx":0.0017,"nx":28,"ny":28,"refTime":"2025-04-04T09:00:00:Z","depth":"0","parameterNumber":2,"parameterNumberName":"U-component_of_CURRENTS"},"data":[0,0,0,0,0,0,0,0,0,0,0,0,0,0,0,0,0,0,0,0,0,0,0,0,0,0,0,0,0,0,0,0,0,0,0,0,0,0,0,0,0,0,0,0,0,0,0,0,0,0,0,0,0,0,0,0,0,0,-0.2471,-0.2472,0,-0.2517,-0.2517,-0.2518,-0.2491,-0.2489,-0.2488,-0.2487,-0.2504,-0.2505,-0.2507,0,0,0,0,0,0,0,0,0,0,0,0,0,-0.2397,-0.2398,-0.2471,-0.2472,-0.2473,-0.2517,-0.2517,-0.2518,-0.2491,-0.2489,-0.2488,-0.2487,-0.2503,-0.2505,-0.2507,0,0,0,0,0,0,0,0,0,0,0,0,0,-0.2433,-0.2399,-0.2471,-0.2465,-0.2465,-0.2517,-0.2517,-0.2518,-0.2491,-0.2489,-0.2488,-0.2486,-0.2503,-0.2505,-0.2507,-0.2557,0,0,-0.2514,-0.2515,0,0,0,0,0,0,0,0,-0.2431,-0.2436,-0.2466,-0.2466,-0.2466,-0.2497,-0.2497,-0.253,-0.2492,-0.248,-0.2487,-0.2485,-0.2501,-0.2503,-0.2515,-0.2558,-0.2559,-0.2514,-0.2516,-0.2517,-0.2518,0,0,0,0,0,0,0,-0.2429,-0.2434,-0.2488,-0.2467,-0.2467,-0.2473,-0.2476,-0.2504,-0.2499,-0.2481,-0.2479,-0.2487,-0.25,-0.2512,-0.2515,-0.2559,-0.2514,-0.2516,-0.2518,-0.2519,-0.2668,-0.2671,0,0,0,0,0,0,-0.2426,-0.2432,-0.2487,-0.249,-0.2445,-0.2476,-0.2479,-0.2488,-0.2499,-0.2499,-0.2489,-0.2486,-0.2509,-0.2512,-0.2515,-0.2571,-0.2517,-0.2519,-0.252,-0.2666,-0.2669,-0.2672,0,0,0,0,0,0,-0.2424,-0.2431,-0.2485,-0.2462,-0.247,-0.2479,-0.249,-0.249,-0.2494,-0.2505,-0.2504,-0.2491,-0.2508,-0.2512,-0.2547,-0.2571,-0.252,-0.2522,-0.2663,-0.2667,-0.267,-0.2685,0,0,0,0,0,0,-0.2422,-0.243,-0.2432,-0.2462,-0.2471,-0.2518,-0.2492,-0.2492,-0.2503,-0.2499,-0.2508,-0.2508,-0.2507,-0.2544,-0.255,-0.2574,-0.2524,-0.2659,-0.2664,-0.2669,-0.2682,-0.2689,-0.2696,0,0,0,0,0,-0.2419,-0.2434,-0.2432,-0.2439,-0.2475,-0.2519,-0.2525,-0.2524,-0.2504,-0.2518,-0.2526,-0.2507,-0.2579,-0.2548,-0.2554,-0.2579,-0.2657,-0.2663,-0.2669,-0.2679,-0.2688,-0.2696,0,0,0,0,0,0,-0.2401,-0.2434,-0.2432,-0.2454,-0.2484,-0.2515,-0.2525,-0.2527,-0.2545,-0.2536,-0.2536,-0.2539,-0.2582,-0.259,-0.2556,-0.2642,-0.2617,-0.2625,-0.2623,-0.2632,-0.2639,-0.2632,-0.2526,0,0,0,0,0,-0.24,-0.2416,-0.2453,-0.2468,-0.2484,-0.2504,-0.2518,-0.2525,-0.2547,-0.2551,-0.2562,-0.2583,-0.2616,-0.2627,-0.2659,-0.2702,-0.2669,-0.2728,-0.2735,-0.2741,-0.2744,-0.2707,-0.2709,-0.2691,-0.2691,-0.269,0,0,-0.2395,-0.2415,-0.2422,-0.2465,-0.2482,-0.2528,-0.2508,-0.2536,-0.2572,-0.2553,-0.2596,-0.2608,-0.2637,-0.2685,-0.2706,-0.2688,-0.2731,-0.2748,-0.2752,-0.2753,-0.2713,-0.2714,-0.2714,-0.2695,-0.2694,-0.2693,0,0,-0.2409,-0.2414,-0.244,-0.2474,-0.2512,-0.2535,-0.2545,-0.2584,-0.2594,-0.2645,-0.2642,-0.2662,-0.272,-0.2735,-0.2753,-0.2823,-0.2772,-0.2844,-0.2866,-0.2829,-0.2829,-0.2828,-0.2779,-0.2774,-0.2842,-0.2842,-0.2842,0,-0.2401,-0.2441,-0.2455,-0.25,-0.2529,-0.2542,-0.2589,-0.2618,-0.2663,-0.2674,-0.2663,-0.2729,-0.2744,-0.2792,-0.282,-0.2834,-0.28,-0.2821,-0.2832,-0.2831,-0.283,-0.278,-0.2773,-0.2843,-0.2843,-0.2843,-0.2843,0,-0.2446,-0.2481,-0.2501,-0.2561,-0.2597,-0.2637,-0.2684,-0.2712,-0.2722,-0.2742,-0.2783,-0.2799,-0.2827,-0.2847,-0.2857,-0.2876,-0.2849,-0.284,-0.2794,-0.2831,-0.2778,-0.2771,-0.2846,-0.2845,-0.2845,-0.2844,0,0,-0.2416,-0.2514,-0.2518,-0.2554,-0.2631,-0.2661,-0.2727,-0.2781,-0.2798,-0.2834,-0.2849,-0.2911,-0.2889,-0.291,-0.2913,-0.2892,-0.2854,-0.2868,-0.2865,-0.2791,-0.2758,-0.271,-0.2697,-0.2835,-0.2834,-0.2834,-0.2718,0,-0.2443,-0.2529,-0.2577,-0.2654,-0.27,-0.2743,-0.2798,-0.2843,-0.2866,-0.2883,-0.289,-0.291,-0.2924,-0.2918,-0.2907,-0.2872,-0.284,-0.2886,-0.2759,-0.2756,-0.2684,-0.269,-0.2627,-0.2517,-0.2711,-0.271,-0.2709,0,-0.2467,-0.2523,-0.2604,-0.2691,-0.2712,-0.276,-0.2817,-0.287,-0.2906,-0.2916,-0.2929,-0.2926,-0.2928,-0.2913,-0.2859,-0.2884,-0.2829,-0.2791,-0.2785,-0.273,-0.2695,-0.2518,-0.2497,-0.2495,-0.2698,-0.2699,-0.27,0,-0.2422,-0.2534,-0.2591,-0.2627,-0.2733,-0.2763,-0.281,-0.2866,-0.2893,-0.2918,-0.2917,-0.2922,-0.29,-0.2854,-0.2803,-0.2818,-0.271,-0.2711,-0.2614,-0.2609,-0.2528,-0.2517,-0.2465,-0.2651,-0.2651,-0.2651,-0.2652,0,-0.2427,-0.2468,-0.257,-0.2601,-0.2649,-0.2733,-0.2771,-0.2816,-0.2862,-0.287,-0.2914,-0.2903,-0.2882,-0.283,-0.2783,-0.2675,-0.2687,-0.2612,-0.2577,-0.2534,-0.2526,-0.2499,-0.2517,-0.2647,-0.2648,-0.2649,-0.265,0,-0.2363,-0.2441,-0.2501,-0.2604,-0.2631,-0.2654,-0.2739,-0.2758,-0.282,-0.2826,-0.2829,-0.2864,-0.2801,-0.2766,-0.267,-0.2631,-0.2497,-0.2496,-0.2446,-0.2408,-0.2326,-0.2347,-0.2232,-0.2166,-0.2365,-0.2363,-0.2361,0,-0.2339,-0.2366,-0.2464,-0.2483,-0.2525,-0.2579,-0.2609,-0.2707,-0.2729,-0.279,-0.2775,-0.2753,-0.2709,-0.258,-0.2502,-0.2389,-0.2394,-0.2274,-0.2304,-0.2307,-0.2304,-0.2313,-0.2267,-0.2195,-0.2192,-0.219,-0.2188,0,-0.2271,-0.23,-0.2341,-0.2384,-0.2419,-0.246,-0.2514,-0.253,-0.2627,-0.2646,-0.2642,-0.2618,-0.2537,-0.242,-0.2311,-0.2236,-0.2237,-0.2223,-0.2233,-0.2175,-0.2172,-0.2096,-0.2287,-0.2167,-0.2169,-0.2171,-0.2172,-0.2173,-0.2185,-0.2187,-0.2232,-0.2257,-0.2295,-0.2307,-0.2291,-0.2359,-0.2376,-0.2378,-0.2454,-0.2405,-0.2372,-0.2218,-0.2146,-0.2039,-0.206,-0.2001,-0.2024,-0.2032,-0.1981,-0.2128,-0.1973,-0.1974,-0.1975,-0.1976,-0.1976,0,-0.2068,-0.208,-0.21,-0.2122,-0.21,-0.2168,-0.2192,-0.215,-0.2117,-0.2182,-0.2172,-0.2181,-0.2084,-0.2059,-0.1972,-0.1887,-0.1836,-0.1844,-0.1856,-0.1815,-0.194,-0.1948,-0.1773,-0.1773,-0.1773,-0.1773,-0.1773,-0.1773,-0.2006,-0.1976,-0.1989,-0.1913,-0.1918,-0.1837,-0.1814,-0.1781,-0.1796,-0.1779,-0.183,-0.1905,-0.1921,-0.2044,-0.1937,-0.1843,-0.1791,-0.1733,-0.1732,-0.1865,-0.1883,-0.19,-0.1912,-0.1732,-0.1732,-0.1561,-0.156,-0.1559]},{"header":{"parameterUnit":"m.s-1","parameterCategory":2,"la1":30.2991,"la2":30.254,"lo1":-89.0895,"lo2":-89.0444,"dy":0.0017,"dx":0.0017,"nx":28,"ny":28,"refTime":"2025-04-04T09:00:00:Z","depth":"0","parameterNumber":3,"parameterNumberName":"V-component_of_CURRENTS"},"data":[0,0,0,0,0,0,0,0,0,0,0,0,0,0,0,0,0,0,0,0,0,0,0,0,0,0,0,0,0,0,0,0,0,0,0,0,0,0,0,0,0,0,0,0,0,0,0,0,0,0,0,0,0,0,0,0,0,0,-0.0263,-0.0262,0,-0.0172,-0.0171,-0.017,-0.0104,-0.0103,-0.0103,-0.0103,0.0049,0.0053,0.0057,0,0,0,0,0,0,0,0,0,0,0,0,0,-0.0317,-0.0317,-0.0263,-0.0262,-0.0261,-0.0173,-0.0171,-0.017,-0.0104,-0.0103,-0.0103,-0.0102,0.0048,0.0052,0.0057,0,0,0,0,0,0,0,0,0,0,0,0,0,-0.0265,-0.0317,-0.0263,-0.0219,-0.0214,-0.0173,-0.0171,-0.0169,-0.0104,-0.0103,-0.0103,-0.0102,0.0047,0.0052,0.0057,0.0079,0,0,0.0074,0.0077,0,0,0,0,0,0,0,0,-0.0268,-0.0263,-0.0226,-0.0222,-0.0216,-0.015,-0.0135,-0.0084,-0.0104,-0.0144,-0.0103,-0.0102,-0.0013,-0.0003,0.0015,0.0087,0.0093,0.0075,0.0078,0.0081,0.0082,0,0,0,0,0,0,0,-0.0272,-0.0266,-0.0225,-0.0225,-0.0219,-0.0182,-0.0175,-0.0124,-0.0081,-0.014,-0.0136,-0.0129,-0.001,0.0009,0.0019,0.0095,0.0075,0.008,0.0083,0.0085,0.0216,0.0216,0,0,0,0,0,0,-0.0291,-0.027,-0.0228,-0.0223,-0.0243,-0.0182,-0.0174,-0.0171,-0.0082,-0.0069,-0.0129,-0.0126,-0.0001,0.0012,0.0024,0.0067,0.008,0.0086,0.0089,0.0216,0.0216,0.0216,0,0,0,0,0,0,-0.0292,-0.0288,-0.0232,-0.0245,-0.0236,-0.0183,-0.0179,-0.0169,-0.015,-0.0075,-0.006,-0.0121,0.0,0.0017,0.0067,0.0073,0.0088,0.0093,0.0215,0.0216,0.0216,0.0145,0,0,0,0,0,0,-0.0294,-0.0289,-0.0294,-0.0247,-0.0236,-0.0216,-0.018,-0.0168,-0.0148,-0.0142,-0.0063,-0.0048,0.0002,0.0058,0.0072,0.0081,0.0097,0.0215,0.0215,0.0216,0.0147,0.0143,0.0139,0,0,0,0,0,-0.0297,-0.0309,-0.0295,-0.029,-0.0244,-0.0216,-0.0207,-0.0165,-0.0148,-0.0145,-0.009,-0.0051,0.0071,0.0062,0.0079,0.009,0.0215,0.0215,0.0216,0.0149,0.0144,0.014,0,0,0,0,0,0,-0.0333,-0.0302,-0.0286,-0.0288,-0.0258,-0.0206,-0.02,-0.0173,-0.0128,-0.0121,-0.0049,-0.0031,0.0014,0.006,0.005,0.0128,0.015,0.0153,0.0094,0.0089,0.0085,0.0081,0.0102,0,0,0,0,0,-0.0346,-0.0347,-0.0308,-0.031,-0.0299,-0.0252,-0.0235,-0.0209,-0.0163,-0.0143,-0.0088,-0.0027,0.0028,0.0063,0.0113,0.0158,0.0206,0.0176,0.0172,0.0168,0.0176,0.0256,0.026,0.0217,0.0217,0.0217,0,0,-0.036,-0.0344,-0.0344,-0.0318,-0.0291,-0.0282,-0.024,-0.0223,-0.0207,-0.0133,-0.0097,-0.0044,0.0034,0.0081,0.0106,0.0123,0.02,0.0169,0.0165,0.0175,0.0257,0.0261,0.0265,0.0217,0.0217,0.0217,0,0,-0.0395,-0.0376,-0.0391,-0.0371,-0.0342,-0.0309,-0.0309,-0.0262,-0.0233,-0.0196,-0.0136,-0.0078,-0.0003,0.0062,0.0104,0.011,0.0169,0.0121,0.0109,0.0185,0.019,0.0194,0.0234,0.0243,0.0128,0.0128,0.0128,0,-0.0415,-0.0425,-0.039,-0.0396,-0.0384,-0.0328,-0.0335,-0.0296,-0.0238,-0.0206,-0.0195,-0.0064,-0.0007,0.0077,0.0077,0.0103,0.0142,0.0117,0.018,0.0186,0.0192,0.0232,0.0243,0.0124,0.0125,0.0125,0.0125,0,-0.0458,-0.0464,-0.047,-0.0458,-0.0438,-0.0436,-0.0382,-0.0353,-0.0314,-0.0265,-0.0188,-0.0105,-0.0022,0.0004,0.0043,0.0117,0.0127,0.0156,0.0188,0.0192,0.0234,0.0246,0.012,0.0121,0.0122,0.0123,0,0,-0.0505,-0.0503,-0.0505,-0.051,-0.0472,-0.0461,-0.0429,-0.0377,-0.0343,-0.0277,-0.0222,-0.0125,-0.0073,-0.0022,0.0043,0.0115,0.0175,0.0146,0.0152,0.0179,0.032,0.0346,0.0362,0.0215,0.0218,0.022,0.0323,0,-0.055,-0.0589,-0.0562,-0.0579,-0.0592,-0.0526,-0.0499,-0.0438,-0.0372,-0.0305,-0.0197,-0.0127,-0.0083,-0.0042,0.0036,0.0145,0.0209,0.0143,0.0321,0.0326,0.0344,0.0378,0.0427,0.0526,0.0335,0.0337,0.0339,0,-0.06,-0.062,-0.0658,-0.0642,-0.0638,-0.063,-0.0564,-0.053,-0.0414,-0.0359,-0.026,-0.0175,-0.0057,-0.0026,0.0165,0.0119,0.0209,0.0292,0.0298,0.0361,0.0376,0.05,0.0556,0.0711,0.0358,0.0357,0.0355,0,-0.0664,-0.0679,-0.0714,-0.0713,-0.0686,-0.0675,-0.0647,-0.055,-0.051,-0.0389,-0.0342,-0.019,-0.011,0.003,0.0193,0.0182,0.0398,0.0407,0.0515,0.0516,0.0615,0.0621,0.0843,0.0541,0.0541,0.0541,0.0541,0,-0.0727,-0.0749,-0.0751,-0.0773,-0.0793,-0.0742,-0.0726,-0.0667,-0.0571,-0.0515,-0.038,-0.0297,-0.0089,0.006,0.0192,0.0393,0.04,0.0525,0.056,0.0587,0.059,0.0776,0.0819,0.0545,0.0544,0.0543,0.0542,0,-0.0795,-0.0798,-0.0838,-0.0834,-0.0832,-0.0847,-0.0802,-0.0776,-0.0679,-0.06,-0.0565,-0.0365,-0.0162,0.0039,0.0284,0.0397,0.0678,0.0645,0.0643,0.0676,0.0906,0.0941,0.1174,0.1256,0.0779,0.0781,0.0782,0,-0.0835,-0.0869,-0.09,-0.0928,-0.0932,-0.0939,-0.0935,-0.0848,-0.081,-0.0635,-0.06,-0.0382,-0.0207,0.0151,0.0403,0.0653,0.0763,0.0826,0.0825,0.0946,0.1011,0.1029,0.1082,0.0915,0.0918,0.092,0.0921,0,-0.0907,-0.0919,-0.0955,-0.1022,-0.1043,-0.1052,-0.1035,-0.1021,-0.0896,-0.08,-0.0629,-0.047,-0.0099,0.0239,0.0566,0.0716,0.094,0.0869,0.1028,0.1168,0.1176,0.1261,0.0786,0.0937,0.0936,0.0935,0.0934,0.0933,-0.095,-0.0999,-0.105,-0.1105,-0.1134,-0.1148,-0.1145,-0.1091,-0.1013,-0.0833,-0.0671,-0.0386,0.0104,0.0592,0.0761,0.1144,0.1086,0.1261,0.1299,0.1311,0.1389,0.0924,0.1093,0.1092,0.1091,0.1091,0.109,0,-0.1004,-0.1055,-0.1123,-0.1185,-0.1226,-0.1214,-0.119,-0.1143,-0.1046,-0.0838,-0.0633,-0.0051,0.0416,0.0846,0.1378,0.1574,0.161,0.1671,0.1736,0.1773,0.1413,0.142,0.163,0.1629,0.1629,0.1629,0.1629,0.1629,-0.1032,-0.1116,-0.1155,-0.1244,-0.1279,-0.1291,-0.1271,-0.1163,-0.1004,-0.0638,-0.0289,-0.0002,0.0626,0.1471,0.1956,0.1995,0.2151,0.213,0.2202,0.1978,0.1944,0.191,0.1932,0.2245,0.2246,0.257,0.2573,0.2575]}],[{"header":{"parameterUnit":"m.s-1","parameterCategory":2,"la1":30.2991,"la2":30.254,"lo1":-89.0895,"lo2":-89.0444,"dy":0.0017,"dx":0.0017,"nx":28,"ny":28,"refTime":"2025-04-04T09:00:00:Z","depth":"2","parameterNumber":2,"parameterNumberName":"U-component_of_CURRENTS"},"data":[0,0,0,0,0,0,0,0,0,0,0,0,0,0,0,0,0,0,0,0,0,0,0,0,0,0,0,0,0,0,0,0,0,0,0,0,0,0,0,0,0,0,0,0,0,0,0,0,0,0,0,0,0,0,0,0,0,0,-0.2309,-0.231,0,-0.2348,-0.2348,-0.2349,-0.2326,-0.2325,-0.2324,-0.2323,-0.2334,-0.2335,-0.2336,0,0,0,0,0,0,0,0,0,0,0,0,0,-0.2243,-0.2244,-0.2309,-0.231,-0.2311,-0.2348,-0.2348,-0.2349,-0.2326,-0.2325,-0.2324,-0.2323,-0.2333,-0.2335,-0.2336,0,0,0,0,0,0,0,0,0,0,0,0,0,-0.2274,-0.2244,-0.2309,-0.2305,-0.2305,-0.2348,-0.2348,-0.2349,-0.2326,-0.2325,-0.2324,-0.2322,-0.2333,-0.2334,-0.2336,-0.2376,0,0,-0.2342,-0.2342,0,0,0,0,0,0,0,0,-0.2272,-0.2276,-0.2305,-0.2305,-0.2306,-0.2332,-0.2329,-0.2357,-0.2327,-0.2317,-0.2323,-0.2322,-0.2332,-0.2334,-0.2343,-0.2377,-0.2377,-0.2342,-0.2343,-0.2344,-0.2344,0,0,0,0,0,0,0,-0.227,-0.2275,-0.2323,-0.2306,-0.2306,-0.231,-0.2313,-0.2334,-0.2331,-0.2318,-0.2316,-0.2323,-0.2332,-0.2341,-0.2343,-0.2377,-0.2342,-0.2343,-0.2344,-0.2345,-0.2469,-0.2471,0,0,0,0,0,0,-0.2269,-0.2273,-0.2322,-0.2325,-0.2287,-0.2313,-0.2315,-0.2324,-0.2331,-0.2331,-0.2325,-0.2322,-0.2339,-0.2341,-0.2343,-0.2395,-0.2344,-0.2345,-0.2346,-0.2467,-0.247,-0.2472,0,0,0,0,0,0,-0.2267,-0.2273,-0.2321,-0.23,-0.2307,-0.2315,-0.2325,-0.2325,-0.2331,-0.2337,-0.2336,-0.2329,-0.2338,-0.2341,-0.2371,-0.2395,-0.2346,-0.2348,-0.2464,-0.2468,-0.2471,-0.2496,0,0,0,0,0,0,-0.2265,-0.2272,-0.2275,-0.23,-0.2308,-0.235,-0.2327,-0.2327,-0.2338,-0.2335,-0.2341,-0.2341,-0.2337,-0.2368,-0.2373,-0.2396,-0.2349,-0.2462,-0.2466,-0.247,-0.2492,-0.25,-0.2506,0,0,0,0,0,-0.2263,-0.2276,-0.2275,-0.2281,-0.2313,-0.2351,-0.2355,-0.2355,-0.234,-0.2352,-0.2358,-0.234,-0.2398,-0.2372,-0.2376,-0.2401,-0.2459,-0.2465,-0.247,-0.2489,-0.2498,-0.2506,0,0,0,0,0,0,-0.2247,-0.2276,-0.2275,-0.2296,-0.2322,-0.2347,-0.2357,-0.236,-0.2375,-0.2368,-0.2365,-0.2367,-0.2406,-0.2409,-0.2379,-0.2454,-0.2428,-0.2434,-0.2442,-0.245,-0.2457,-0.2451,-0.235,0,0,0,0,0,-0.2248,-0.2261,-0.2294,-0.2308,-0.2322,-0.234,-0.2353,-0.2359,-0.2378,-0.2382,-0.239,-0.2407,-0.2434,-0.2443,-0.2468,-0.2505,-0.2473,-0.2529,-0.2535,-0.2541,-0.2543,-0.2511,-0.2513,-0.2489,-0.2489,-0.2489,0,0,-0.2244,-0.2261,-0.2268,-0.2305,-0.2321,-0.236,-0.2344,-0.237,-0.2401,-0.2383,-0.2421,-0.2432,-0.2452,-0.2495,-0.2512,-0.2495,-0.2533,-0.2547,-0.2551,-0.2551,-0.2516,-0.2517,-0.2519,-0.2492,-0.2492,-0.2491,0,0,-0.2256,-0.2262,-0.2284,-0.2314,-0.2349,-0.2369,-0.2378,-0.2413,-0.2423,-0.2468,-0.2465,-0.2484,-0.2531,-0.2543,-0.2556,-0.262,-0.2573,-0.2639,-0.2661,-0.263,-0.263,-0.263,-0.2585,-0.2581,-0.2637,-0.2637,-0.2637,0,-0.225,-0.2284,-0.2297,-0.2336,-0.2362,-0.2376,-0.2416,-0.2442,-0.2481,-0.2492,-0.2485,-0.2542,-0.2553,-0.2594,-0.2622,-0.2631,-0.2602,-0.262,-0.2634,-0.2633,-0.2632,-0.2586,-0.2581,-0.2639,-0.2639,-0.2639,-0.2638,0,-0.2287,-0.2318,-0.2336,-0.2388,-0.2419,-0.2454,-0.2497,-0.2523,-0.2535,-0.2554,-0.2592,-0.2606,-0.2631,-0.2649,-0.2657,-0.2676,-0.2652,-0.2643,-0.2599,-0.2635,-0.2586,-0.258,-0.2642,-0.2641,-0.264,-0.264,0,0,-0.226,-0.2345,-0.2349,-0.2379,-0.2448,-0.2474,-0.2533,-0.258,-0.2597,-0.2633,-0.2647,-0.2704,-0.269,-0.2707,-0.271,-0.2694,-0.2665,-0.2674,-0.2671,-0.2606,-0.2582,-0.2532,-0.252,-0.2651,-0.2651,-0.265,-0.2544,0,-0.2282,-0.2354,-0.2397,-0.2462,-0.2501,-0.2541,-0.259,-0.2632,-0.2655,-0.2674,-0.2683,-0.2704,-0.2719,-0.2719,-0.2711,-0.2681,-0.2653,-0.2694,-0.2578,-0.2574,-0.2505,-0.2513,-0.2346,-0.2235,-0.2538,-0.2537,-0.2536,0,-0.23,-0.2346,-0.2415,-0.249,-0.2509,-0.2552,-0.2604,-0.2652,-0.2689,-0.2702,-0.2719,-0.272,-0.2726,-0.2717,-0.2671,-0.2695,-0.2647,-0.2613,-0.2607,-0.2547,-0.2513,-0.2253,-0.2212,-0.2525,-0.2526,-0.2527,-0.2528,0,-0.2256,-0.2351,-0.2399,-0.243,-0.2524,-0.2553,-0.2597,-0.2651,-0.2677,-0.2706,-0.271,-0.2719,-0.2705,-0.2666,-0.2623,-0.2638,-0.2541,-0.2543,-0.2449,-0.2443,-0.2272,-0.2253,-0.2489,-0.249,-0.249,-0.249,-0.249,0,-0.2254,-0.2288,-0.238,-0.2407,-0.2448,-0.2525,-0.2562,-0.2606,-0.2653,-0.2664,-0.2711,-0.2703,-0.2691,-0.2646,-0.2605,-0.2506,-0.2521,-0.2447,-0.2413,-0.2279,-0.2263,-0.25,-0.2502,-0.2486,-0.2487,-0.2488,-0.2488,0,-0.2193,-0.2263,-0.2312,-0.2405,-0.243,-0.2452,-0.2533,-0.2552,-0.2618,-0.2627,-0.2634,-0.2672,-0.2618,-0.2588,-0.2504,-0.2466,-0.2383,-0.234,-0.2183,-0.2134,-0.2308,-0.2314,-0.2218,-0.2215,-0.2213,-0.2211,-0.221,0,-0.2168,-0.219,-0.2277,-0.2293,-0.2333,-0.2384,-0.2413,-0.2508,-0.253,-0.2596,-0.2582,-0.2569,-0.2528,-0.241,-0.2323,-0.2214,-0.2293,-0.2014,-0.2025,-0.2303,-0.228,-0.229,-0.2298,-0.1796,-0.1791,-0.1787,-0.1784,0,-0.2099,-0.2128,-0.2161,-0.22,-0.2233,-0.2269,-0.2322,-0.2336,-0.2432,-0.2451,-0.2452,-0.243,-0.2347,-0.2171,-0.2064,-0.1985,-0.2026,-0.1932,-0.2226,-0.1915,-0.1903,-0.1883,-0.1905,-0.1749,-0.1753,-0.1755,-0.1757,-0.1759,-0.2019,-0.2017,-0.2056,-0.2077,-0.2113,-0.2123,-0.2106,-0.2166,-0.2179,-0.2163,-0.2246,-0.2148,-0.2113,-0.186,-0.1753,-0.1666,-0.1805,-0.1723,-0.1736,-0.1752,-0.1746,-0.1734,-0.1545,-0.1547,-0.1549,-0.1551,-0.1553,0,-0.1903,-0.1914,-0.193,-0.1946,-0.1922,-0.1993,-0.2012,-0.1953,-0.1911,-0.193,-0.1905,-0.168,-0.1582,-0.1548,-0.1368,-0.1342,-0.1326,-0.1283,-0.1266,-0.1302,-0.1333,-0.1307,-0.0988,-0.0987,-0.0985,-0.0984,0,0,-0.1842,-0.1807,-0.1816,-0.1739,-0.1748,-0.1665,-0.1642,-0.1574,-0.1544,-0.1428,-0.1378,-0.1485,-0.1506,-0.1247,-0.1189,-0.1063,-0.1169,-0.1006,-0.1458,-0.1473,-0.1502,-0.1584,-0.1583,0,0,0,0,0]},{"header":{"parameterUnit":"m.s-1","parameterCategory":2,"la1":30.2991,"la2":30.254,"lo1":-89.0895,"lo2":-89.0444,"dy":0.0017,"dx":0.0017,"nx":28,"ny":28,"refTime":"2025-04-04T09:00:00:Z","depth":"2","parameterNumber":3,"parameterNumberName":"V-component_of_CURRENTS"},"data":[0,0,0,0,0,0,0,0,0,0,0,0,0,0,0,0,0,0,0,0,0,0,0,0,0,0,0,0,0,0,0,0,0,0,0,0,0,0,0,0,0,0,0,0,0,0,0,0,0,0,0,0,0,0,0,0,0,0,-0.0294,-0.0293,0,-0.0209,-0.0208,-0.0207,-0.0144,-0.0143,-0.0143,-0.0143,-0.0002,0.0001,0.0004,0,0,0,0,0,0,0,0,0,0,0,0,0,-0.0347,-0.0347,-0.0294,-0.0293,-0.0293,-0.021,-0.0208,-0.0207,-0.0144,-0.0143,-0.0143,-0.0142,-0.0003,0.0001,0.0005,0,0,0,0,0,0,0,0,0,0,0,0,0,-0.0298,-0.0346,-0.0294,-0.0252,-0.0248,-0.021,-0.0208,-0.0207,-0.0144,-0.0143,-0.0143,-0.0142,-0.0005,0.0,0.0005,0.0024,0,0,0.0021,0.0023,0,0,0,0,0,0,0,0,-0.0301,-0.0296,-0.0259,-0.0255,-0.025,-0.0188,-0.0175,-0.0127,-0.0144,-0.0182,-0.0143,-0.0142,-0.0061,-0.0051,-0.0035,0.003,0.0036,0.0021,0.0024,0.0026,0.0028,0,0,0,0,0,0,0,-0.0304,-0.0299,-0.0259,-0.0258,-0.0253,-0.0219,-0.0212,-0.0166,-0.0123,-0.0178,-0.0174,-0.0167,-0.0057,-0.004,-0.0031,0.0038,0.0021,0.0025,0.0029,0.0031,0.0142,0.0142,0,0,0,0,0,0,-0.0322,-0.0303,-0.0262,-0.0257,-0.0276,-0.0219,-0.021,-0.0207,-0.0125,-0.0113,-0.0168,-0.0165,-0.0049,-0.0037,-0.0026,0.0009,0.0026,0.0031,0.0034,0.0142,0.0142,0.0142,0,0,0,0,0,0,-0.0323,-0.0319,-0.0265,-0.0279,-0.027,-0.0219,-0.0216,-0.0206,-0.0188,-0.0118,-0.0104,-0.016,-0.0048,-0.0033,0.0012,0.0014,0.0033,0.0038,0.0142,0.0142,0.0142,0.0073,0,0,0,0,0,0,-0.0325,-0.032,-0.0325,-0.028,-0.027,-0.0251,-0.0216,-0.0205,-0.0186,-0.0181,-0.0107,-0.0093,-0.0046,0.0004,0.0017,0.0022,0.0042,0.0142,0.0142,0.0142,0.0075,0.007,0.0066,0,0,0,0,0,-0.0327,-0.0339,-0.0326,-0.0321,-0.0277,-0.0252,-0.0244,-0.0204,-0.0186,-0.0184,-0.0133,-0.0095,0.0012,0.0008,0.0023,0.0029,0.0142,0.0142,0.0142,0.0077,0.0071,0.0066,0,0,0,0,0,0,-0.0362,-0.0332,-0.0317,-0.0318,-0.0291,-0.0242,-0.0237,-0.0211,-0.017,-0.0163,-0.0096,-0.0079,-0.0041,0.0002,-0.0005,0.0061,0.0084,0.0086,0.0029,0.0024,0.002,0.0015,0.0046,0,0,0,0,0,-0.0374,-0.0376,-0.0339,-0.034,-0.033,-0.0286,-0.0271,-0.0245,-0.0203,-0.0185,-0.0134,-0.0078,-0.003,0.0002,0.0046,0.0084,0.0132,0.0099,0.0094,0.009,0.0096,0.0173,0.0177,0.0141,0.0141,0.0141,0,0,-0.0388,-0.0372,-0.0372,-0.0348,-0.0323,-0.0317,-0.0275,-0.0259,-0.0248,-0.0176,-0.0146,-0.0096,-0.0026,0.0014,0.0036,0.0052,0.012,0.009,0.0086,0.0094,0.0174,0.0177,0.0181,0.0141,0.0141,0.0141,0,0,-0.0422,-0.0403,-0.0418,-0.0401,-0.0374,-0.0344,-0.0345,-0.0301,-0.0275,-0.0243,-0.0187,-0.0134,-0.0068,-0.001,0.0027,0.0027,0.0088,0.0037,0.0021,0.0095,0.0099,0.0103,0.0145,0.0154,0.0042,0.0042,0.0042,0,-0.0441,-0.0453,-0.0418,-0.0427,-0.0417,-0.0363,-0.0373,-0.0339,-0.0285,-0.0258,-0.0245,-0.0127,-0.0075,-0.0003,-0.0005,0.0019,0.0059,0.0033,0.009,0.0095,0.01,0.0143,0.0153,0.0039,0.0039,0.004,0.004,0,-0.0485,-0.0493,-0.05,-0.0493,-0.0476,-0.0476,-0.0428,-0.0403,-0.0365,-0.0321,-0.0253,-0.0175,-0.01,-0.0078,-0.0041,0.0025,0.0039,0.0067,0.0101,0.01,0.0145,0.0156,0.0034,0.0035,0.0036,0.0037,0,0,-0.0531,-0.0534,-0.0536,-0.0544,-0.0512,-0.0503,-0.0479,-0.0435,-0.0406,-0.0345,-0.0297,-0.0211,-0.0158,-0.0113,-0.0051,0.0018,0.0078,0.0053,0.0058,0.0089,0.0223,0.0246,0.0262,0.0118,0.012,0.0122,0.023,0,-0.0577,-0.0621,-0.0597,-0.062,-0.0636,-0.0575,-0.0555,-0.0503,-0.0441,-0.0381,-0.0281,-0.0217,-0.0174,-0.0134,-0.006,0.0048,0.011,0.0045,0.0224,0.0229,0.0248,0.0278,0.0226,0.032,0.0242,0.0244,0.0245,0,-0.0629,-0.0651,-0.0695,-0.0686,-0.0684,-0.0681,-0.0625,-0.0597,-0.0492,-0.044,-0.0348,-0.0267,-0.0156,-0.0123,0.0062,0.0018,0.0109,0.0192,0.0198,0.0258,0.0277,0.0315,0.0346,0.0266,0.0264,0.0263,0.0261,0,-0.0691,-0.0712,-0.0752,-0.0752,-0.0734,-0.0728,-0.0704,-0.0618,-0.0583,-0.0471,-0.0426,-0.0285,-0.0205,-0.0069,0.0093,0.0082,0.0296,0.0305,0.0411,0.0412,0.0425,0.0424,0.0435,0.0435,0.0435,0.0434,0.0434,0,-0.0755,-0.078,-0.0787,-0.0811,-0.0836,-0.0792,-0.0782,-0.0729,-0.0641,-0.0589,-0.0464,-0.0384,-0.0184,-0.0038,0.0093,0.0292,0.0299,0.042,0.0456,0.0396,0.0392,0.0394,0.0387,0.0438,0.0437,0.0437,0.0436,0,-0.082,-0.0827,-0.0871,-0.0874,-0.0874,-0.0891,-0.0853,-0.0832,-0.0741,-0.0668,-0.0634,-0.0444,-0.0246,-0.0052,0.0189,0.0297,0.0477,0.0541,0.0443,0.0466,0.0536,0.0524,0.0669,0.0671,0.0673,0.0675,0.0676,0,-0.086,-0.0895,-0.0931,-0.096,-0.0967,-0.0978,-0.0977,-0.0898,-0.0864,-0.0698,-0.0664,-0.0453,-0.0286,0.0063,0.0292,0.0532,0.0538,0.0618,0.0598,0.0546,0.0566,0.0552,0.0539,0.0574,0.0574,0.0575,0.0575,0,-0.0931,-0.0944,-0.0981,-0.1049,-0.1072,-0.1085,-0.1072,-0.106,-0.0943,-0.0852,-0.0687,-0.0536,-0.0192,0.0082,0.0392,0.0523,0.0574,0.0631,0.0635,0.052,0.0466,0.0482,0.047,0.0577,0.0577,0.0576,0.0576,0.0576,-0.0973,-0.1021,-0.1072,-0.1129,-0.1159,-0.1174,-0.1174,-0.1125,-0.1052,-0.0884,-0.0731,-0.048,-0.0211,0.0233,0.0444,0.0633,0.0642,0.068,0.0675,0.0672,0.0639,0.0591,0.0718,0.0718,0.0719,0.0719,0.0719,0,-0.1023,-0.1075,-0.1143,-0.1205,-0.1246,-0.1237,-0.1217,-0.1172,-0.1079,-0.09,-0.0711,-0.0399,-0.0085,0.019,0.0489,0.0677,0.0652,0.0699,0.0622,0.0619,0.0617,0.0578,0.0643,0.0643,0.0643,0.0643,0,0,-0.1051,-0.1133,-0.1171,-0.1258,-0.1294,-0.1308,-0.129,-0.1187,-0.1049,-0.0857,-0.0668,-0.0412,-0.0074,0.0119,0.0351,0.0503,0.051,0.0514,0.0555,0.0433,0.0428,0.0587,0.0523,0,0,0,0,0]}],[{"header":{"parameterUnit":"m.s-1","parameterCategory":2,"la1":30.2991,"la2":30.254,"lo1":-89.0895,"lo2":-89.0444,"dy":0.0017,"dx":0.0017,"nx":28,"ny":28,"refTime":"2025-04-04T09:00:00:Z","depth":"4","parameterNumber":2,"parameterNumberName":"U-component_of_CURRENTS"},"data":[0,0,0,0,0,0,0,0,0,0,0,0,0,0,0,0,0,0,0,0,0,0,0,0,0,0,0,0,0,0,0,0,0,0,0,0,0,0,0,0,0,0,0,0,0,0,0,0,0,0,0,0,0,0,0,0,0,0,-0.1564,-0.1564,0,-0.1616,-0.1617,-0.1617,-0.1646,-0.1646,-0.1646,-0.1646,-0.1682,-0.1683,-0.1684,0,0,0,0,0,0,0,0,0,0,0,0,0,-0.1486,-0.1488,-0.1564,-0.1564,-0.1565,-0.1616,-0.1617,-0.1617,-0.1646,-0.1646,-0.1646,-0.1646,-0.1682,-0.1683,-0.1684,0,0,0,0,0,0,0,0,0,0,0,0,0,-0.1526,-0.1488,-0.1563,-0.1587,-0.1589,-0.1616,-0.1617,-0.1617,-0.1646,-0.1646,-0.1646,-0.1647,-0.1682,-0.1683,-0.1684,-0.1685,0,0,-0.1687,-0.1688,0,0,0,0,0,0,0,0,-0.1524,-0.1529,-0.1582,-0.1585,-0.1588,-0.1626,-0.1603,-0.164,-0.1646,-0.1623,-0.1646,-0.1647,-0.1663,-0.1665,-0.1673,-0.1687,-0.1688,-0.1688,-0.1688,-0.1689,-0.1689,0,0,0,0,0,0,0,-0.1521,-0.1527,-0.1583,-0.1583,-0.1587,-0.1594,-0.16,-0.161,-0.1639,-0.1625,-0.1627,-0.1635,-0.1664,-0.1672,-0.1674,-0.1689,-0.1688,-0.1689,-0.1689,-0.169,-0.177,-0.1771,0,0,0,0,0,0,-0.1518,-0.1524,-0.1581,-0.1585,-0.1558,-0.1595,-0.1602,-0.1612,-0.1639,-0.1644,-0.1635,-0.1637,-0.1669,-0.1672,-0.1675,-0.1737,-0.1689,-0.169,-0.169,-0.1769,-0.177,-0.1772,0,0,0,0,0,0,-0.1516,-0.1522,-0.1579,-0.1556,-0.1564,-0.1596,-0.1608,-0.1613,-0.1646,-0.1648,-0.1652,-0.1665,-0.167,-0.1673,-0.171,-0.1736,-0.169,-0.1691,-0.1767,-0.1769,-0.1771,-0.1823,0,0,0,0,0,0,-0.1513,-0.1521,-0.1539,-0.1556,-0.1566,-0.1612,-0.1608,-0.1614,-0.1649,-0.1653,-0.1674,-0.1677,-0.167,-0.1708,-0.1711,-0.1737,-0.1692,-0.1765,-0.1768,-0.177,-0.1819,-0.1827,-0.1833,0,0,0,0,0,-0.151,-0.153,-0.154,-0.1548,-0.1586,-0.1613,-0.1619,-0.1641,-0.1651,-0.1671,-0.1689,-0.1677,-0.1727,-0.1711,-0.1713,-0.174,-0.1764,-0.1767,-0.177,-0.1816,-0.1825,-0.1833,0,0,0,0,0,0,-0.1508,-0.1535,-0.1546,-0.1575,-0.1601,-0.1619,-0.1642,-0.1657,-0.1687,-0.1697,-0.1696,-0.17,-0.1743,-0.1736,-0.1718,-0.1772,-0.1743,-0.1747,-0.1777,-0.1786,-0.1792,-0.1782,-0.1693,0,0,0,0,0,-0.1515,-0.1537,-0.1563,-0.1588,-0.1604,-0.1628,-0.1647,-0.1664,-0.1687,-0.1703,-0.1721,-0.1738,-0.1755,-0.1767,-0.1782,-0.181,-0.1784,-0.183,-0.1837,-0.1842,-0.1837,-0.1818,-0.1822,-0.1783,-0.1783,-0.1783,0,0,-0.1522,-0.1539,-0.1554,-0.159,-0.1611,-0.1641,-0.1641,-0.1679,-0.1708,-0.1701,-0.1754,-0.1767,-0.177,-0.1805,-0.1822,-0.1804,-0.1843,-0.1846,-0.1851,-0.1842,-0.1822,-0.1825,-0.1828,-0.1785,-0.1784,-0.1784,0,0,-0.1536,-0.1563,-0.1585,-0.1611,-0.1651,-0.1666,-0.1684,-0.1722,-0.1745,-0.1793,-0.1795,-0.182,-0.1858,-0.1857,-0.186,-0.1911,-0.1882,-0.1929,-0.195,-0.1933,-0.1935,-0.1937,-0.1915,-0.1915,-0.1928,-0.1928,-0.1928,0,-0.1546,-0.1574,-0.1597,-0.1626,-0.165,-0.1681,-0.1712,-0.1741,-0.1789,-0.1804,-0.1819,-0.1866,-0.1875,-0.1893,-0.1919,-0.1924,-0.1911,-0.1919,-0.1939,-0.1941,-0.1941,-0.1919,-0.1917,-0.1931,-0.193,-0.193,-0.193,0,-0.1567,-0.1603,-0.162,-0.1665,-0.1696,-0.1729,-0.1768,-0.1807,-0.1842,-0.1861,-0.1906,-0.192,-0.1939,-0.1955,-0.1958,-0.1975,-0.1964,-0.1952,-0.1914,-0.1948,-0.1923,-0.192,-0.1935,-0.1934,-0.1933,-0.1932,0,0,-0.1546,-0.1621,-0.1629,-0.1655,-0.1719,-0.1741,-0.1797,-0.1838,-0.1864,-0.1915,-0.1938,-0.1981,-0.1987,-0.1991,-0.1997,-0.199,-0.1996,-0.1985,-0.1983,-0.1955,-0.1961,-0.1847,-0.1832,-0.1993,-0.1993,-0.1992,-0.1942,0,-0.1555,-0.1607,-0.1648,-0.1703,-0.173,-0.1781,-0.1825,-0.1869,-0.1908,-0.1941,-0.1955,-0.1987,-0.2001,-0.2018,-0.2015,-0.2004,-0.1992,-0.2011,-0.1939,-0.1937,-0.1823,-0.1826,-0.1992,-0.194,-0.194,-0.1939,-0.1939,0,-0.1552,-0.1588,-0.1644,-0.1712,-0.173,-0.1775,-0.1835,-0.188,-0.1929,-0.1958,-0.1987,-0.2002,-0.2018,-0.202,-0.2002,-0.2019,-0.1998,-0.198,-0.1977,-0.1846,-0.1817,-0.1898,-0.1934,-0.1934,-0.1934,-0.1935,-0.1935,0,-0.1496,-0.1579,-0.1621,-0.1648,-0.1734,-0.1773,-0.1822,-0.1884,-0.1916,-0.197,-0.1992,-0.2009,-0.2024,-0.2004,-0.1989,-0.2001,-0.195,-0.1951,-0.182,-0.1812,-0.1908,-0.1906,-0.192,-0.192,-0.192,-0.192,-0.192,0,-0.1464,-0.15,-0.1605,-0.1625,-0.1673,-0.1751,-0.1801,-0.1852,-0.1916,-0.1935,-0.1998,-0.2002,-0.2025,-0.2005,-0.1981,-0.1885,-0.1939,-0.1812,-0.1784,-0.1933,-0.1935,-0.1906,-0.1905,-0.1918,-0.1918,-0.1919,-0.1919,0,-0.1385,-0.146,-0.1509,-0.1613,-0.1648,-0.1682,-0.1786,-0.1811,-0.1896,-0.1922,-0.1943,-0.1998,-0.1971,-0.1963,-0.1922,-0.1858,-0.1787,-0.1739,-0.1895,-0.188,-0.1665,-0.1668,-0.1578,-0.1573,-0.1569,-0.1566,-0.1563,0,-0.1343,-0.1364,-0.1479,-0.1508,-0.156,-0.1631,-0.1671,-0.178,-0.1804,-0.1897,-0.1886,-0.1909,-0.1921,-0.1759,-0.1781,-0.1697,-0.1681,-0.1636,-0.1652,-0.1644,-0.1627,-0.1636,-0.1644,-0.1557,-0.1556,-0.1555,-0.1554,0,-0.1253,-0.1309,-0.1347,-0.141,-0.1466,-0.1514,-0.1585,-0.159,-0.17,-0.1799,-0.177,-0.1745,-0.1707,-0.1667,-0.1612,-0.156,-0.166,-0.1595,-0.1603,-0.1618,-0.1618,-0.1607,-0.1619,-0.1541,-0.1543,-0.1544,-0.1545,0,-0.1179,-0.1183,-0.1245,-0.1282,-0.135,-0.1364,-0.1425,-0.1453,-0.1495,-0.161,-0.1595,-0.1623,-0.1686,-0.1595,-0.1545,-0.1481,-0.146,-0.1411,-0.1429,-0.1444,-0.1423,-0.1404,-0.1223,0,0,0,0,0,-0.1092,-0.108,-0.1109,-0.1144,-0.1208,-0.1244,-0.1343,-0.1411,-0.1524,-0.1457,-0.1523,-0.1482,-0.1425,-0.1448,-0.1347,-0.1475,-0.1459,-0.1353,-0.1412,-0.1465,-0.1481,-0.1469,0,0,0,0,0,0,-0.1033,-0.105,-0.1058,-0.1015,-0.1014,-0.1068,-0.1124,-0.1212,-0.1189,-0.1311,-0.1282,-0.1381,-0.134,-0.144,-0.1309,-0.1313,-0.1317,-0.1386,-0.1381,-0.1457,-0.1471,-0.1483,-0.1476,0,0,0,0,0]},{"header":{"parameterUnit":"m.s-1","parameterCategory":2,"la1":30.2991,"la2":30.254,"lo1":-89.0895,"lo2":-89.0444,"dy":0.0017,"dx":0.0017,"nx":28,"ny":28,"refTime":"2025-04-04T09:00:00:Z","depth":"4","parameterNumber":3,"parameterNumberName":"V-component_of_CURRENTS"},"data":[0,0,0,0,0,0,0,0,0,0,0,0,0,0,0,0,0,0,0,0,0,0,0,0,0,0,0,0,0,0,0,0,0,0,0,0,0,0,0,0,0,0,0,0,0,0,0,0,0,0,0,0,0,0,0,0,0,0,-0.023,-0.0229,0,-0.0178,-0.0177,-0.0177,-0.0137,-0.0136,-0.0136,-0.0136,-0.0044,-0.0042,-0.004,0,0,0,0,0,0,0,0,0,0,0,0,0,-0.0262,-0.0262,-0.023,-0.0229,-0.0229,-0.0178,-0.0177,-0.0177,-0.0137,-0.0136,-0.0136,-0.0136,-0.0045,-0.0043,-0.004,0,0,0,0,0,0,0,0,0,0,0,0,0,-0.0232,-0.0262,-0.023,-0.0204,-0.0201,-0.0178,-0.0177,-0.0176,-0.0137,-0.0136,-0.0136,-0.0136,-0.0046,-0.0043,-0.004,-0.0027,0,0,-0.0029,-0.0028,0,0,0,0,0,0,0,0,-0.0234,-0.0231,-0.0208,-0.0205,-0.0202,-0.0165,-0.0155,-0.0125,-0.0137,-0.016,-0.0136,-0.0135,-0.0082,-0.0076,-0.0066,-0.0023,-0.0019,-0.0029,-0.0027,-0.0026,-0.0025,0,0,0,0,0,0,0,-0.0236,-0.0232,-0.0208,-0.0208,-0.0204,-0.0184,-0.0179,-0.0149,-0.0122,-0.0158,-0.0155,-0.0151,-0.008,-0.0069,-0.0063,-0.0018,-0.0029,-0.0026,-0.0024,-0.0023,0.0024,0.0023,0,0,0,0,0,0,-0.0247,-0.0235,-0.021,-0.0207,-0.0219,-0.0184,-0.0178,-0.0176,-0.0123,-0.0115,-0.0152,-0.015,-0.0075,-0.0067,-0.006,-0.0056,-0.0026,-0.0023,-0.0021,0.0024,0.0023,0.0023,0,0,0,0,0,0,-0.0248,-0.0245,-0.0212,-0.022,-0.0215,-0.0184,-0.0181,-0.0175,-0.0167,-0.0119,-0.011,-0.0151,-0.0074,-0.0064,-0.0042,-0.0052,-0.0021,-0.0018,0.0025,0.0024,0.0023,-0.0039,0,0,0,0,0,0,-0.0249,-0.0246,-0.0251,-0.0221,-0.0215,-0.0208,-0.0182,-0.0175,-0.0166,-0.0163,-0.0115,-0.0106,-0.0073,-0.0047,-0.0038,-0.0046,-0.0016,0.0026,0.0025,0.0023,-0.0036,-0.0043,-0.0048,0,0,0,0,0,-0.025,-0.026,-0.0252,-0.0249,-0.0222,-0.0209,-0.0204,-0.0179,-0.0167,-0.0169,-0.0137,-0.0108,-0.005,-0.0045,-0.0035,-0.0042,0.0027,0.0025,0.0023,-0.0034,-0.0041,-0.0048,0,0,0,0,0,0,-0.0274,-0.0256,-0.0246,-0.0249,-0.0235,-0.0203,-0.0203,-0.0186,-0.0163,-0.016,-0.0113,-0.0102,-0.0088,-0.0058,-0.0054,-0.0034,-0.0008,-0.0008,-0.0055,-0.0062,-0.0067,-0.0074,-0.0013,0,0,0,0,0,-0.0283,-0.0287,-0.0264,-0.0267,-0.0263,-0.0235,-0.0227,-0.0212,-0.0187,-0.0176,-0.0144,-0.0112,-0.0087,-0.007,-0.0044,-0.0029,0.0013,-0.0029,-0.0035,-0.004,-0.0039,0.0016,0.0015,0.0017,0.0017,0.0017,0,0,-0.0293,-0.0284,-0.0286,-0.0273,-0.0259,-0.0264,-0.0229,-0.0224,-0.0227,-0.017,-0.0164,-0.0131,-0.0089,-0.0076,-0.0067,-0.0051,-0.002,-0.0042,-0.0046,-0.0043,0.0014,0.0014,0.0014,0.0016,0.0016,0.0016,0,0,-0.0321,-0.0308,-0.0324,-0.0318,-0.0306,-0.0289,-0.0291,-0.0266,-0.0254,-0.0243,-0.0206,-0.0179,-0.0142,-0.0111,-0.0091,-0.0112,-0.0055,-0.0108,-0.0135,-0.0082,-0.0081,-0.008,-0.0032,-0.0026,-0.0106,-0.0107,-0.0107,0,-0.0335,-0.0351,-0.0327,-0.0342,-0.0343,-0.0305,-0.0324,-0.0307,-0.0278,-0.0267,-0.0252,-0.0192,-0.0158,-0.0131,-0.0141,-0.0124,-0.0085,-0.0112,-0.0088,-0.0086,-0.0084,-0.0035,-0.0028,-0.011,-0.0109,-0.0109,-0.0109,0,-0.0376,-0.0391,-0.0399,-0.0407,-0.0404,-0.0412,-0.0389,-0.0381,-0.0359,-0.0335,-0.0306,-0.0255,-0.0216,-0.0205,-0.0178,-0.015,-0.0125,-0.0105,-0.007,-0.0088,-0.0035,-0.0027,-0.0114,-0.0113,-0.0112,-0.0111,0,0,-0.0405,-0.0426,-0.0431,-0.0448,-0.044,-0.0442,-0.0445,-0.0432,-0.0424,-0.039,-0.0373,-0.033,-0.029,-0.0266,-0.0223,-0.0176,-0.013,-0.0138,-0.0134,-0.0089,-0.0012,-0.0021,-0.0011,-0.0102,-0.01,-0.0099,0.0016,0,-0.0446,-0.0497,-0.049,-0.053,-0.0552,-0.0521,-0.0526,-0.0505,-0.0471,-0.0443,-0.0383,-0.035,-0.0317,-0.0291,-0.0244,-0.0154,-0.0109,-0.0163,-0.0003,0.0002,-0.0002,-0.0002,-0.0096,0.0023,0.0025,0.0027,0.0028,0,-0.049,-0.0519,-0.0574,-0.0594,-0.0599,-0.0615,-0.0602,-0.0598,-0.0545,-0.0514,-0.0463,-0.0406,-0.0338,-0.0306,-0.0165,-0.0199,-0.0118,-0.0047,-0.004,-0.0019,0.001,0.0047,0.0045,0.0043,0.0042,0.0041,0.004,0,-0.053,-0.0573,-0.0622,-0.0632,-0.0648,-0.0662,-0.0661,-0.0623,-0.061,-0.0551,-0.0521,-0.0435,-0.0376,-0.0271,-0.0131,-0.0143,0.0035,0.004,0.0109,0.011,0.0112,0.011,0.0137,0.0137,0.0137,0.0136,0.0136,0,-0.0575,-0.0612,-0.0649,-0.0676,-0.0722,-0.071,-0.073,-0.0708,-0.0665,-0.0638,-0.0561,-0.0505,-0.0361,-0.0242,-0.0132,0.0019,0.0037,0.0107,0.014,0.0081,0.0074,0.0119,0.0115,0.0141,0.014,0.0139,0.0138,0,-0.0609,-0.0636,-0.0694,-0.0732,-0.0747,-0.0777,-0.0785,-0.0783,-0.0736,-0.0694,-0.0673,-0.0542,-0.0385,-0.0237,-0.0042,0.0025,0.0166,0.0216,0.0145,0.0172,0.0204,0.0195,0.0293,0.0294,0.0294,0.0295,0.0295,0,-0.0631,-0.0668,-0.0739,-0.0777,-0.0801,-0.0839,-0.0857,-0.0828,-0.081,-0.0705,-0.0679,-0.0524,-0.0425,-0.0154,-0.0011,0.0194,0.0217,0.0277,0.0228,0.0198,0.0221,0.0211,0.0202,0.0296,0.0296,0.0297,0.0297,0,-0.0666,-0.0697,-0.0743,-0.0824,-0.0868,-0.0902,-0.0918,-0.0909,-0.0847,-0.0807,-0.0659,-0.0513,-0.0334,-0.0144,0.0021,0.0164,0.0227,0.0284,0.0283,0.0237,0.0203,0.0223,0.0213,0.0299,0.0298,0.0298,0.0298,0,-0.0684,-0.0726,-0.079,-0.0854,-0.0913,-0.0939,-0.0949,-0.0904,-0.0871,-0.0747,-0.0693,-0.0495,-0.0371,-0.0157,-0.0004,0.0133,0.0152,0.0171,0.0176,0.0175,0.0096,0.0033,0.0108,0,0,0,0,0,-0.0693,-0.074,-0.081,-0.0876,-0.0934,-0.0959,-0.097,-0.096,-0.0901,-0.08,-0.074,-0.0567,-0.0316,-0.0201,-0.0065,-0.0022,0.0151,0.0136,0.017,0.031,0.0308,0.0232,0,0,0,0,0,0,-0.0701,-0.077,-0.0807,-0.0874,-0.0918,-0.0964,-0.0971,-0.0936,-0.0868,-0.0791,-0.0651,-0.0555,-0.0312,-0.0387,-0.0065,-0.0023,0.0009,0.0262,0.0264,0.0311,0.0309,0.0307,0.0229,0,0,0,0,0]}]]